Location: Unspecified
(0.0000°N, 0.0000°E)
Time: 17:58:23
(UTC+00:00)

STARLINK 1022 - Pass Details

Date: 19 January 2020
Orbit: 548 x 551 km, 53.0° (Epoch: 17 January)

Event Time Altitude Azimuth Distance (km) Brightness Sun altitude
Rises 18:34:10 0° 301° (WNW) 2,702 7.8 -5.5°
Reaches altitude 10° 18:36:50 10° 284° (WNW) 1,812 7.2 -6.1°
Maximum altitude 18:39:54 20° 235° (SW) 1,288 6.7 -6.9°
Drops below altitude 10° 18:42:59 10° 187° (S) 1,818 6.7 -7.6°
Sets 18:45:41 0° 170° (S) 2,714 7.3 -8.2°
